OPS 4682 DEB, 38372

Orbit data source: Space-Track

OPS 4682 DEB, 38372 is space debris in LEO originally from a launch on Sat, 03 Apr 1965 UTC launched from the Air Force Western Test Range (AFWTR). Debris objects in space refer to the collection of defunct objects orbiting the Earth. Examples of debris include non-operational satellites, rocket bodies, and fragments generated from explosions, collisions, or faulty payload assembly.

Loading next visibility...
Identifier
38372, 1965-027BZ
Orbit
LEO
Country
Flag of USUS
Related business
Manufacturer
Unknown
Mission
Spacecraft
Bus & Motor
Unknown
Mass
Unknown
Launch date (UTC)
1965-04-03 (61 years ago)
Launch vehicle
Unknown
Launch site
Air Force Western Test Range (AFWTR)
Object type
Payload
Rocket body
Debris
Shape & HBR
Unknown shape, 0.1 m
Radar Cross Section
Medium (>0.1 m² and <1 m²)

Expand to show TLE details & history
Last TLE update: 15 hours ago

TLE from 15 hours ago
0 OPS 4682 DEB
1 38372U 65027BZ  26263.09148757  .00000203  00000-0  66850-3 0  9996
2 38372  90.3148  42.6572 0032015 145.4610 214.8599 12.97963113675781
Epoch: 2026-09-20T02:11Z
TLE epoch observation values (Epoch: 2026-09-20T02:11:44.526Z)
Latitude
-0.00005°
Longitude
10.73103°
Altitude
1,293.08 km
Speed
7.2 km/s
True Right ascension
02h 50m 37s
True Declination
0° 00' 00"
Sunlit
Object was in full shadow at epoch
Visualization orbit readout
Latitude
Unknown
Longitude
Unknown
Altitude
Unknown
Speed
Unknown
Apparent Right ascension
Unknown
Apparent Declination
Unknown
Sunlit
N/A
Visualization observer readout
Local Sidereal Time
09:47:09
Azimuth
Unknown
Elevation
Unknown
Doppler factor
Unknown
Orbital elements
Apogee altitude
1,291.684 km
Perigee altitude
1,242.731 km
Semi-major axis
7,645.345 km
Eccentricity
0.0032
Inclination
90.3148°
RAAN
42.6572°
Arg. of periapsis
145.461°
True anomaly
214.6509°
Mean anomaly
214.8599°
Eccentric anomaly
214.75533°
Mean motion
3.24674 °/min
Orbital period
110.88 mins
BSTAR
0.0006685
Loading maneuver chart data...
Computing Atmospheric mass density...
Loading historical data...
Loading historical data...
Loading historical data...
Loading historical data...
Loading historical data...
Loading historical data...
Loading historical data...

Documentation

Showing up to 5 results
|